#timestamp,LO_Frequency,Hit,StdDev 
1553983215.7,286047000.1,N
1553983235.5,286047002.8,N
1553983255.4,286046999.8,N
1553983275.2,286046999.9,N
1553983295.1,286047002.8,N
1553983296.0,286047002.8,N
1553983315.8,286047001.4,N
1553983335.6,286047003.8,N
1553983355.5,286047000.0,N
1553983375.3,286047002.0,N
1553983395.1,286047004.4,N
1553983415.9,286047003.1,N
1553983435.7,286047003.5,N
1553983455.6,286047001.7,N
1553983475.4,286047001.4,N
1553983495.2,286047000.0,N
1553983515.1,286047001.5,N
1553983516.0,286047001.5,N
1553983535.8,286047001.5,N
1553983555.7,286047001.7,N
1553983575.5,286047003.8,N
1553983595.3,286047004.8,Y
1553983615.2,286047003.3,P
1553983635.9,286047006.2,P
1553983655.7,286047007.1,P
1553983675.6,286047006.0,Y
1553983695.4,286047001.2,P
1553983715.3,286046998.2,N
1553983735.1,286047002.6,N
1553983736.0,286047002.6,N
1553983755.8,286047002.5,N
1553983775.7,286047002.3,N
1553983795.5,286047002.2,N
1553983815.3,286047002.5,N
1553983835.2,286047002.1,N
1553983855.0,286047002.0,N
1553983855.9,286047002.0,N
1553983875.8,286047000.0,N
1553983895.6,286047002.6,N
1553983915.4,286047002.3,N
1553983935.3,286047001.4,N
1553983955.1,286047001.6,N
1553983975.8,286047001.0,N
1553983995.7,286047000.1,N
1553984015.5,286046999.7,N
1553984035.4,286047000.1,N
1553984055.2,286047001.4,N
1553984075.0,286046999.7,N
1553984075.9,286046999.7,N
1553984095.8,286047000.0,N
1553984115.6,286047000.8,N
1553984135.5,286047001.5,N
1553984155.3,286046999.8,N
1553984175.1,286047000.9,N
1553984195.9,286047000.2,N
1553984215.7,286046998.5,N
1553984235.5,286046998.8,N
1553984255.4,286047001.2,N
1553984275.2,286047000.0,N
1553984295.0,286046998.1,N
1553984296.0,286046998.1,N
1553984315.8,286047001.1,N
1553984335.6,286046999.9,N
1553984355.5,286046999.7,N
1553984375.3,286047001.0,N
1553984395.1,286046999.4,N
1553984415.9,286046996.6,Y
1553984435.7,286046999.4,P
1553984455.6,286047000.7,N
1553984475.4,286046999.5,N
1553984495.2,286046996.1,Y
1553984515.1,286046995.2,P
1553984516.0,286046995.2,N
1553984535.8,286046994.9,N
1553984555.6,286046993.9,N
1553984575.5,286046996.1,N
1553984595.3,286046995.6,N
1553984615.2,286046995.3,N
1553984635.9,286046997.9,N
1553984655.7,286046997.6,N
1553984675.6,286046996.1,N
1553984695.4,286046995.0,Y
1553984715.2,286046998.9,P
1553984735.1,286046999.3,N
1553984736.0,286046999.3,N
1553984755.8,286047001.2,N
1553984775.7,286046996.9,N
1553984795.5,286046999.2,N
1553984815.3,286046999.0,N
1553984835.2,286046999.3,N
1553984855.0,286046999.3,N
1553984855.9,286046999.3,N
1553984875.7,286046999.3,N
1553984895.6,286046998.3,N
1553984915.4,286046998.4,N
1553984935.3,286046999.2,N
1553984955.1,286046997.2,N
1553984975.8,286046997.6,N
1553984995.7,286046996.8,N
1553985015.5,286046996.9,N
1553985035.4,286046999.1,N
1553985055.2,286046999.5,N
1553985075.0,286046997.2,N
1553985075.9,286046997.2,N
1553985095.8,286046999.4,N
1553985115.6,286046996.9,N
1553985135.4,286046997.3,N
1553985155.3,286046995.7,Y
1553985175.1,286046996.7,P
1553985195.9,286046998.7,N
1553985215.7,286046999.2,N
1553985235.5,286046999.4,N
1553985255.4,286047001.1,N
1553985275.2,286046998.9,N
1553985295.0,286046996.6,N
1553985295.9,286046996.6,N
1553985315.8,286046998.7,N
1553985335.6,286046998.4,N
1553985355.5,286046999.2,N
1553985375.3,286046997.0,N
1553985395.1,286046998.7,N
1553985415.9,286046999.3,N
1553985435.7,286046999.6,N
1553985455.5,286046999.4,N
1553985475.4,286046999.2,N
1553985495.2,286046997.6,N
1553985515.1,286046996.1,Y
1553985516.0,286046996.1,P
1553985535.8,286046997.1,N
1553985555.6,286046996.8,P
1553985575.5,286046997.0,Y
1553985595.3,286047002.3,P
1553985615.2,286047000.2,N
1553985635.9,286047000.1,N
1553985655.7,286047000.5,N
1553985675.6,286047000.0,N
1553985695.4,286047002.1,N
1553985715.2,286047001.9,N
1553985735.1,286047000.1,N
1553985736.0,286047000.1,N
1553985755.8,286047004.4,Y
1553985775.7,286047002.1,P
1553985795.5,286047000.1,N
1553985815.3,286047002.1,N
1553985835.2,286047001.8,N
1553985855.0,286047000.1,N
1553985855.9,286047000.1,N
1553985875.7,286047000.0,N
1553985895.6,286047001.9,N
1553985915.4,286047001.6,N
1553985935.3,286047001.8,N
1553985955.1,286047001.5,N
1553985956.0,286047001.5,N
1553985975.8,286047001.9,N
1553985995.7,286047001.4,N
1553986015.5,286047002.8,Y
1553986035.3,286047001.0,P
1553986055.2,286047000.0,N
1553986075.0,286046998.8,N
1553986075.9,286046998.8,N
1553986095.8,286046998.7,N
1553986115.6,286046998.1,N
1553986135.4,286047000.0,N
1553986155.3,286047000.5,N
1553986175.1,286046999.9,N
1553986195.8,286046998.2,N
1553986215.7,286046998.8,N
1553986235.5,286046999.0,N
1553986255.4,286046997.1,N
1553986275.2,286046998.8,N
1553986295.0,286046998.4,N
1553986295.9,286046998.4,N
1553986315.8,286047000.9,N
1553986335.6,286046998.8,N
1553986355.5,286046996.7,Y
1553986375.3,286046998.4,P
1553986395.1,286046998.7,P
1553986415.9,286047000.6,N
1553986435.7,286046999.8,N
1553986455.5,286047000.8,N
1553986475.1,286047001.2,N
1553986476.0,286047001.2,N
1553986495.8,286047000.3,N
1553986515.6,286047001.0,N
1553986535.5,286046999.9,N
1553986555.3,286047000.3,N
1553986575.2,286047001.0,N
1553986595.9,286047001.1,N
1553986615.7,286047000.9,N
1553986635.6,286047001.1,N
1553986655.4,286047000.7,N
1553986675.2,286047001.1,N
1553986695.1,286046998.7,N
1553986696.0,286046998.7,N
1553986715.8,286046998.5,N
1553986735.7,286046998.9,N
1553986755.5,286046999.4,N
1553986775.3,286046998.3,N
1553986795.2,286046998.8,N
